#timestamp,LO_Frequency,Hit,StdDev 
1606183215.1,286046998.8,N
1606183216.0,286046998.8,N
1606183235.8,286046996.5,N
1606183255.7,286046996.5,N
1606183275.5,286046999.4,N
1606183295.3,286046998.9,N
1606183315.2,286046999.0,N
1606183335.9,286046998.9,N
1606183355.7,286046996.5,N
1606183375.6,286046999.5,N
1606183395.4,286046999.1,N
1606183415.3,286046999.4,N
1606183435.1,286046999.2,N
1606183436.0,286046999.2,N
1606183455.8,286046996.7,N
1606183475.7,286046996.8,N
1606183495.5,286046996.9,N
1606183515.3,286046997.3,N
1606183535.2,286046995.0,N
1606183555.0,286046999.2,N
1606183555.9,286046999.2,N
1606183575.8,286046999.6,N
1606183595.6,286046998.8,N
1606183615.4,286046999.4,N
1606183635.3,286046999.3,N
1606183655.1,286046996.5,N
1606183675.9,286046998.9,N
1606183695.7,286046998.3,N
1606183715.5,286047000.8,N
1606183735.4,286047000.9,N
1606183755.2,286047001.0,N
1606183775.0,286046998.2,N
1606183775.9,286046998.2,N
1606183795.8,286046998.4,N
1606183815.6,286046998.8,N
1606183835.5,286046998.8,N
1606183855.3,286046999.3,N
1606183875.1,286046999.6,N
1606183895.9,286046997.0,N
1606183915.7,286046996.7,N
1606183935.5,286046999.6,N
1606183955.4,286046998.5,N
1606183975.2,286046998.2,N
1606183995.0,286047000.3,N
1606183996.0,286047000.3,N
1606184015.8,286046998.1,N
1606184035.6,286046998.6,N
1606184055.5,286047001.1,N
1606184075.3,286047000.8,N
1606184095.1,286047000.8,N
1606184115.9,286047000.8,N
1606184135.7,286047000.3,N
1606184155.6,286047000.3,N
1606184175.4,286047000.9,N
1606184195.2,286047001.1,N
1606184215.1,286047000.9,N
1606184216.0,286047000.9,N
1606184235.8,286047001.0,N
1606184255.6,286046999.6,N
1606184275.5,286046996.5,N
1606184295.3,286046998.6,N
1606184315.2,286047001.2,N
1606184335.9,286046998.9,N
1606184355.7,286046996.6,N
1606184375.6,286046996.5,N
1606184395.4,286046999.0,N
1606184415.2,286046998.1,N
1606184435.1,286046998.8,N
1606184436.0,286046998.8,N
1606184455.8,286047000.8,N
1606184475.7,286047000.9,N
1606184495.5,286047000.6,N
1606184515.3,286047000.4,N
1606184535.2,286047002.3,N
1606184555.0,286046999.9,N
1606184555.9,286046999.9,N
1606184575.7,286047000.0,N
1606184595.6,286047001.0,N
1606184615.4,286047000.4,N
1606184635.3,286047001.0,N
1606184655.1,286047000.9,N
1606184656.0,286047000.9,N
1606184675.8,286047002.5,N
1606184695.7,286047000.9,N
1606184715.5,286046998.5,N
1606184735.3,286047000.6,N
1606184755.2,286047001.1,N
1606184775.0,286047000.1,N
1606184775.9,286047000.1,N
1606184795.8,286047001.0,N
1606184815.6,286047000.9,N
1606184835.4,286046999.8,N
1606184855.3,286046999.8,N
1606184875.1,286047000.5,N
1606184895.8,286047000.7,N
1606184915.7,286046998.6,N
1606184935.5,286046998.7,N
1606184955.4,286046998.2,N
1606184975.2,286047000.8,N
1606184995.0,286046998.7,N
1606184995.9,286046998.7,N
1606185015.8,286047000.7,N
1606185035.6,286047002.0,N
1606185055.4,286047002.5,N
1606185075.3,286047000.0,N
1606185125.1,286046998.7,E
1606185135.1,286046998.3,N
1606185136.0,286046998.3,P
1606185155.8,286046998.7,P
1606185175.6,286046999.5,N
1606185195.5,286046996.9,Y
1606185215.3,286046999.3,P
1606185235.2,286047000.7,N
1606185255.9,286047000.4,N
1606185275.7,286046999.9,N
1606185295.6,286047000.9,N
1606185315.4,286047002.7,Y
1606185335.2,286047002.4,P
1606185355.1,286047001.7,N
1606185356.0,286047001.7,N
1606185375.8,286047003.9,Y
1606185395.7,286047004.4,P
1606185415.5,286046999.7,N
1606185435.3,286047000.9,N
1606185455.2,286046998.8,N
1606185475.0,286046998.4,N
1606185475.9,286046998.4,N
1606185495.8,286047000.6,N
1606185515.6,286046998.1,N
1606185535.4,286046998.8,N
1606185555.3,286047000.1,N
1606185575.1,286046998.8,N
1606185576.0,286046998.8,N
1606185595.8,286046998.1,N
1606185615.7,286047002.7,N
1606185635.5,286047001.6,N
1606185655.3,286046999.7,N
1606185675.2,286047000.4,N
1606185695.0,286047001.6,N
1606185695.9,286047001.6,N
1606185715.8,286047000.0,N
1606185735.6,286047000.3,N
1606185755.4,286046998.6,N
1606185775.3,286047001.2,N
1606185795.1,286047000.5,N
1606185815.8,286047001.0,N
1606185835.7,286046998.2,N
1606185855.5,286046998.3,N
1606185875.4,286046999.4,N
1606185895.2,286046998.2,N
1606185915.0,286047001.0,N
1606185915.9,286047001.0,N
1606185935.8,286047001.2,N
1606185955.6,286046998.8,N
1606185975.4,286046998.8,N
1606185995.3,286046999.0,N
1606186015.1,286046999.3,N
1606186035.9,286047001.2,N
1606186055.7,286046998.9,N
1606186075.5,286046999.2,N
1606186095.4,286046998.2,N
1606186115.2,286046999.0,N
1606186135.1,286046998.3,N
1606186136.0,286046998.3,N
1606186155.8,286046999.0,N
1606186175.6,286047001.0,N
1606186195.5,286047002.7,N
1606186215.3,286046999.7,N
1606186235.1,286047000.2,N
1606186255.9,286047002.7,N
1606186275.7,286047002.7,N
1606186295.6,286047000.8,N
1606186315.4,286047001.2,N
1606186335.2,286046999.0,N
1606186355.1,286046997.1,N
1606186356.0,286046997.1,N
1606186375.8,286046997.2,N
1606186395.6,286046997.5,N
1606186415.5,286046998.0,N
1606186435.3,286046995.9,N
1606186455.2,286046995.4,N
1606186475.9,286046995.6,N
1606186495.7,286046996.1,N
1606186515.6,286046995.6,N
1606186535.4,286046995.6,N
1606186555.3,286046997.1,N
1606186575.1,286046996.7,N
1606186576.0,286046996.7,N
1606186595.8,286046997.1,N
1606186615.7,286046998.9,N
1606186635.5,286046996.8,N
1606186655.4,286046997.2,N
1606186675.2,286046996.1,N
1606186695.0,286046995.6,N
1606186695.9,286046995.6,N
1606186715.8,286046995.6,N
1606186735.6,286046995.0,N
1606186755.4,286046997.2,N
1606186775.3,286046995.1,N
1606186795.1,286046997.3,N
